Regional Weather Roundup
Issued by NWS

Home | Current Version | Previous Version | Graphics & Text | Print | Product List | Glossary On
Versions: 1 2 3 4 5 6 7 8 9 10 11 12 13 14 15 16 17 18 19 20 21 22 23 24 25 26 27 28 29 30 31 32 33 34 35 36 37 38 39 40 41 42 43 44 45 46 47 48 49 50
000
ASUS45 KBOI 071110
RWRID

IDAHO REGIONAL WEATHER ROUNDUP
NATIONAL WEATHER SERVICE BOISE ID
500 AM MDT TUE JUL 07 2015

NOTE: "FAIR" INDICATES FEW OR NO CLOUDS BELOW 12000 FEET
WITH NO SIGNIFICANT WEATHER AND/OR OBSTRUCTIONS TO VISIBILITY

IDZ012-014-071200-
SOUTHWEST IDAHO


CITY           SKY/WX    TMP DP  RH WIND       PRES   REMARKS
BOISE          MOCLDY    75  48  38 SE10      29.97S
CALDWELL       MOCLDY    72  52  49 S3        29.96S
MOUNTAIN HOME  MOCLDY    66  49  54 E9        29.98S
$$

IDZ016-017-071200-
SOUTHCENTRAL IDAHO


CITY           SKY/WX    TMP DP  RH WIND       PRES   REMARKS
BURLEY         MOCLDY    64  53  67 VRB3      30.05S
JEROME         CLEAR     67  50  54 E13       30.05F
TWIN FALLS     PTCLDY    66  49  54 S5        30.03F
$$

IDZ019>023-071200-
SOUTHEAST IDAHO


CITY           SKY/WX    TMP DP  RH WIND       PRES   REMARKS
IDAHO FALLS    MOCLDY    56  53  90 N3        30.11F
POCATELLO      CLEAR     59  53  80 CALM      30.10S
REXBURG        PTCLDY    55  50  83 CALM      30.12S
$$

IDZ006-010-011-018-031-032-071200-
CENTRAL IDAHO MOUNTAINS


CITY           SKY/WX    TMP DP  RH WIND       PRES   REMARKS
MCCALL         CLEAR     51  42  71 CALM      30.12S
HAILEY         CLEAR     59  50  72 NW9       30.17S
STANLEY          N/A     41  38  89 CALM      30.26F
SALMON         CLEAR     55  45  67 CALM      30.10S
CHALLIS        CLEAR     51  49  92 CALM      30.17F
$$

IDZ002-004-006-007-026-071200-
NORTHERN IDAHO


CITY           SKY/WX    TMP DP  RH WIND       PRES   REMARKS
LEWISTON       PTCLDY    72  46  39 CALM      29.89S
LOWELL           N/A     60  52  74 N5        29.99S
COEUR D`ALENE  PTCLDY    63  46  55 E8        29.93F
MULLAN PASS    CLOUDY    63  37  38 S5        30.16F
$$



USA.gov is the U.S. government's official web portal to all federal, state and local government web resources and services.